COSMOS 2251 DEB, 34582

Orbit data source: Space-Track

COSMOS 2251 DEB, 34582 is space debris in LEO originally from a launch on Wed, 16 Jun 1993 UTC launched from the Plesetsk Missile And Space Complex (PKMTR). The debris from Iridium 33, an American commercial communications satellite, has been tracked extensively since its accidental collision with the defunct Russian satellite Cosmos 2251 in 2009. This event, occurring at high speed in low Earth orbit (LEO), generated thousands of pieces of space debris, significantly increasing the risk of further collisions. The Iridium 33 debris cloud has impacted space traffic management and orbital debris mitigation strategies, making it a subject of ongoing study in space situational awareness.

Loading next visibility...
Identifier
34582, 1993-036VU
Orbit
LEO
Country
Flag of CISCIS
Related business
Manufacturer
Unknown
Mission
Spacecraft
Bus & Motor
Unknown
Mass
Unknown
Launch date (UTC)
1993-06-16 (33 years ago)
Launch vehicle
Unknown
Launch site
Plesetsk Missile And Space Complex (PKMTR)
Object type
Payload
Rocket body
Debris
Shape & HBR
Unknown shape, 0.1 m
Radar Cross Section
Small (<0.1 m²)

Expand to show TLE details & history
Last TLE update: 23 hours ago

TLE from 23 hours ago
0 COSMOS 2251 DEB
1 34582U 93036VU  25354.14958364  .00001776  00000-0  52710-3 0  9991
2 34582  74.0201 258.5968 0048271   7.1038 353.0791 14.43360763880542
Epoch: 2025-12-20T03:35Z
TLE epoch observation values (Epoch: 2025-12-20T03:35:24.026Z)
Latitude
-0.00006°
Longitude
115.76615°
Altitude
715.887 km
Speed
7.516 km/s
True Right ascension
17h 14m 23s
True Declination
0° 00' 00"
Sunlit
Object was in daylight at epoch
Visualization orbit readout
Latitude
Unknown
Longitude
Unknown
Altitude
Unknown
Speed
Unknown
Apparent Right ascension
Unknown
Apparent Declination
Unknown
Sunlit
N/A
Visualization observer readout
Local Sidereal Time
01:08:05
Azimuth
Unknown
Elevation
Unknown
Doppler factor
Unknown
Orbital elements
Apogee altitude
779.417 km
Perigee altitude
710.649 km
Semi-major axis
7,123.17 km
Eccentricity
0.00483
Inclination
74.0201°
RAAN
258.5968°
Arg. of periapsis
7.1038°
True anomaly
353.01205°
Mean anomaly
353.0791°
Eccentric anomaly
353.04561°
Mean motion
3.61022 °/min
Orbital period
99.72 mins
BSTAR
0.0005271
Loading maneuver chart data...
Computing Atmospheric mass density...
Loading historical data...
Loading historical data...
Loading historical data...
Loading historical data...
Loading historical data...
Loading historical data...
Loading historical data...

Documentation

Showing up to 5 results
|